[TLELIST] Archives

 

[list_settings.list_name] Current TLEs

September 7th 2012 PST

HST 1 20580U 90037B 12247.69724846 +.00002297 +00000-0 +15541-3 0 00637 2 20580 028.4707 349.6817 0003595 172.7773 187.3162 15.02737556026556 ISS (ZARYA) 1 25544U 98067A 12249.90255071 +.00017786 +00000-0 +31331-3 0 02522 2 25544 051.6456 079.8941 0015414 039.9322 098.1245 15.50389126790566 CXO 1 25867U 99040B 12253.57637464 .00000069 00000-0 00000+0 0 7885 2 25867 073.2493 358.6308 8732271 278.1406 000.7993 00.37802188 9474 ____________________________________________________________________ These 2-Line ...Continue Reading

[list_settings.list_name] Current TLEs

September 6th 2012 PST

HST 1 20580U 90037B 12247.69724846 +.00002297 +00000-0 +15541-3 0 00637 2 20580 028.4707 349.6817 0003595 172.7773 187.3162 15.02737556026556 ISS (ZARYA) 1 25544U 98067A 12248.88135417 +.00016604 +00000-0 +29351-3 0 02458 2 25544 051.6457 084.9563 0015352 036.1732 158.4734 15.50348064790401 CXO 1 25867U 99040B 12248.28616906 -.00000290 +00000-0 +00000-0 0 00011 2 25867 073.2196 358.9837 8733295 278.1778 000.5194 00.37805837014980 ____________________________________________________________________ These 2-Line ...Continue Reading

[list_settings.list_name] Current TLEs

September 5th 2012 PST

HST 1 20580U 90037B 12247.69724846 +.00002297 +00000-0 +15541-3 0 00637 2 20580 028.4707 349.6817 0003595 172.7773 187.3162 15.02737556026556 ISS (ZARYA) 1 25544U 98067A 12247.91608796 +.00014400 +00000-0 +25603-3 0 02409 2 25544 051.6464 089.7406 0015550 032.7714 170.9532 15.50306285790257 CXO 1 25867U 99040B 12248.28616906 -.00000290 +00000-0 +00000-0 0 00011 2 25867 073.2196 358.9837 8733295 278.1778 000.5194 00.37805837014980 ____________________________________________________________________ These 2-Line ...Continue Reading

[list_settings.list_name] Current TLEs

September 4th 2012 PST

HST 1 20580U 90037B 12244.77500261 .00001634 00000-0 10702-3 0 623 2 20580 028.4712 008.8111 0003591 142.2386 217.8461 15.02724670 26117 ISS (ZARYA) 1 25544U 98067A 12246.88305556 +.00011921 +00000-0 +21372-3 0 02349 2 25544 051.6462 094.8606 0015532 028.8262 165.6634 15.50266081790093 CXO 1 25867U 99040B 12248.28770110 -.00000290 00000-0 00000+0 0 7868 2 25867 073.2195 358.9820 8733250 278.1797 000.7275 00.37804019 9452 ____________________________________________________________________ These 2-Line ...Continue Reading

[list_settings.list_name] Current TLEs

September 3rd 2012 PST

HST 1 20580U 90037B 12244.77500261 .00001634 00000-0 10702-3 0 623 2 20580 028.4712 008.8111 0003591 142.2386 217.8461 15.02724670 26117 ISS (ZARYA) 1 25544U 98067A 12246.22272084 .00010676 00000-0 19245-3 0 2292 2 25544 051.6470 098.1331 0015295 027.2305 079.5301 15.50244447789994 CXO 1 25867U 99040B 12248.28770110 -.00000290 00000-0 00000+0 0 7868 2 25867 073.2195 358.9820 8733250 278.1797 000.7275 00.37804019 9452 ____________________________________________________________________ These 2-Line ...Continue Reading

[list_settings.list_name] Current TLEs

September 2nd 2012 PST

HST 1 20580U 90037B 12244.77500261 .00001634 00000-0 10702-3 0 623 2 20580 028.4712 008.8111 0003591 142.2386 217.8461 15.02724670 26117 ISS (ZARYA) 1 25544U 98067A 12246.22272084 .00010676 00000-0 19245-3 0 2292 2 25544 051.6470 098.1331 0015295 027.2305 079.5301 15.50244447789994 CXO 1 25867U 99040B 12248.28770110 -.00000290 00000-0 00000+0 0 7868 2 25867 073.2195 358.9820 8733250 278.1797 000.7275 00.37804019 9452 ____________________________________________________________________ These 2-Line ...Continue Reading

[list_settings.list_name] Current TLEs

September 1st 2012 PST

HST 1 20580U 90037B 12244.77500261 .00001634 00000-0 10702-3 0 623 2 20580 028.4712 008.8111 0003591 142.2386 217.8461 15.02724670 26117 ISS (ZARYA) 1 25544U 98067A 12245.44119120 .00009962 00000-0 18026-3 0 2243 2 25544 051.6472 102.0069 0015303 024.3397 037.9304 15.50223774789876 CXO 1 25867U 99040B 12245.64239357 -.00000236 +00000-0 +00000-0 0 00019 2 25867 073.2013 359.1556 8736899 278.1924 000.6236 00.37806920014976 ____________________________________________________________________ These 2-Line ...Continue Reading

[list_settings.list_name] Current TLEs

August 31st 2012 PST

HST 1 20580U 90037B 12243.77878694 .00001436 00000-0 92573-4 0 616 2 20580 028.4710 015.3286 0003570 132.5064 227.6317 15.02721283 25961 ISS (ZARYA) 1 25544U 98067A 12244.39615741 .00007816 00000-0 14337-3 0 2175 2 25544 051.6481 107.1835 0015189 020.9667 325.3510 15.50195300789705 CXO 1 25867U 99040B 12245.64295761 -.00000236 00000-0 00000+0 0 7836 2 25867 073.2013 359.1557 8736903 278.1924 000.7003 00.37806943 9447 ____________________________________________________________________ These 2-Line ...Continue Reading

[list_settings.list_name] Current TLEs

August 30th 2012 PST

HST 1 20580U 90037B 12241.12217144 .00000671 00000-0 36594-4 0 600 2 20580 028.4704 032.7181 0003386 103.9948 256.1080 15.02711964 25564 ISS (ZARYA) 1 25544U 98067A 12243.25693380 .00007602 00000-0 13977-3 0 2109 2 25544 051.6478 112.8292 0015127 016.4678 088.0175 15.50175361789531 CXO 1 25867U 99040B 12245.64295761 -.00000236 00000-0 00000+0 0 7836 2 25867 073.2013 359.1557 8736903 278.1924 000.7003 00.37806943 9447 ____________________________________________________________________ These 2-Line ...Continue Reading

[list_settings.list_name] Current TLEs

August 29th 2012 PST

HST 1 20580U 90037B 12241.12217144 .00000671 00000-0 36594-4 0 600 2 20580 028.4704 032.7181 0003386 103.9948 256.1080 15.02711964 25564 ISS (ZARYA) 1 25544U 98067A 12242.29088056 .00008156 00000-0 14944-3 0 2021 2 25544 051.6476 117.6163 0015054 012.9923 096.7764 15.50161568789389 CXO 1 25867U 99040B 12242.99694708 -.00000104 +00000-0 +00000-0 0 00013 2 25867 073.1768 359.3543 8739512 278.1792 000.5728 00.37803995014961 ____________________________________________________________________ These 2-Line ...Continue Reading
  • This mailing list is a public mailing list - anyone may join or leave, at any time.
  • This mailing list is announce-only.

International Space Station (ISS) / Hubble Space Telescope (HST) / Chandra X-Ray Observatory Orbital Data via EMAIL

Privacy Policy:

Private list